STARLINK-35708 (66277 NORAD) Tracking and Keplerian Element Data

This shows tracking and keplerian element data for the satellite.

Feedback or suggestion? Click here.




ElementValue
Catalog66277
NameSTARLINK-35708
Epoch Orbit883
Epoch Day353.82601745
Epoch Year2025
RAAN203.9981
Inclination53.1566
Eccentricity0.0001248
Argument of Perigee95.743
Mean Anonmoly264.3717
Mean Motion15.39651326
Decay Rate0.00045117
L11 66277U 25247N 25353.82601745 .00045117 00000+0 11301-2 0 9994
L22 66277 53.1566 203.9981 0001248 95.7430 264.3717 15.39651326 8831



Live tracking and technical data element details for STARLINK-35708 (NORAD 66277). STARLINK-35708 can be tracked NOW for your location showing map with azimuth and elevation plus other details from your city location.







IsCatalogInMostPopularTable: catalog: 66277, numindb: 4
Update: records affected: 1



GetName: 66277 STARLINK-35708

Hit Count: updated at: Sat, 07 Feb 2026 08:50:35 GMT